Location: Newark
(54.3386°S, 169.8415°W)
Time: 23:35:25
(UTC+00:00)

Tiros 1 - All Passes

Search period start: 20 October 2019 00:00
Search period end: 30 October 2019 00:00
Orbit: 630 x 664 km, 48.4° (Epoch: 19 October)

Date Brightness Start Highest point End Pass type
(mag) Time Alt. Az. Time Alt. Az. Time Alt. Az.
20 Oct - 00:54:38 10° N 00:57:26 16° NE 01:00:14 10° ENE daylight
20 Oct - 02:34:30 10° NW 02:38:44 34° NNE 02:42:57 10° E daylight
20 Oct - 04:15:59 10° WNW 04:20:22 40° N 04:24:44 10° ENE daylight
20 Oct - 05:58:05 10° W 06:01:53 25° NNW 06:05:40 10° NNE daylight
21 Oct - 01:19:15 10° NNW 01:23:02 24° NNE 01:26:48 10° E daylight
21 Oct - 03:00:10 10° WNW 03:04:32 40° N 03:08:54 10° ENE daylight
21 Oct - 04:41:57 10° W 04:46:11 34° NNW 04:50:24 10° NE daylight
21 Oct - 06:24:36 10° WNW 06:27:29 16° NW 06:30:21 10° N daylight
22 Oct - 00:04:50 10° N 00:07:29 15° NE 00:10:08 10° ENE daylight
22 Oct - 01:44:32 10° NW 01:48:45 33° NNE 01:52:56 10° E daylight
22 Oct - 03:25:59 10° WNW 03:30:23 40° N 03:34:45 10° ENE daylight
22 Oct - 05:08:03 10° W 05:11:55 26° NNW 05:15:45 10° NNE daylight
23 Oct - 00:29:20 10° NNW 00:33:03 23° NNE 00:36:46 10° ENE daylight
23 Oct - 02:10:10 10° WNW 02:14:33 39° N 02:18:55 10° ENE daylight
23 Oct - 03:51:56 10° WNW 03:56:12 35° NNW 04:00:26 10° NE daylight
23 Oct - 05:34:31 10° WNW 05:37:32 17° NNW 05:40:32 10° N daylight
23 Oct - 23:15:02 10° N 23:17:31 14° NE 23:20:00 10° ENE daylight
24 Oct - 00:54:35 10° NW 00:58:46 32° NNE 01:02:56 10° E daylight
24 Oct - 02:35:59 10° WNW 02:40:23 40° N 02:44:46 10° ENE daylight
24 Oct - 04:18:01 10° W 04:21:56 27° NNW 04:25:50 10° NNE daylight
24 Oct - 23:39:25 10° NNW 23:43:05 23° NNE 23:46:44 10° ENE daylight
25 Oct - 01:20:11 10° WNW 01:24:34 39° N 01:28:55 10° ENE daylight
25 Oct - 03:01:55 10° WNW 03:06:13 36° NNW 03:10:28 10° NE daylight
25 Oct - 04:44:25 10° WNW 04:47:34 18° NNW 04:50:42 10° N daylight
25 Oct - 22:25:15 10° N 22:27:34 14° NE 22:29:52 10° ENE daylight
26 Oct - 00:04:37 10° NW 00:08:47 31° NNE 00:12:56 10° E daylight
26 Oct - 01:45:59 10° WNW 01:50:24 41° N 01:54:47 10° ENE daylight
26 Oct - 03:27:59 10° W 03:31:58 28° NNW 03:35:54 10° NE daylight
26 Oct - 05:12:20 10° NW 05:13:02 10° NW 05:13:45 10° NNW daylight
26 Oct - 22:49:31 10° NNW 22:53:06 22° NNE 22:56:41 10° ENE daylight
27 Oct - 00:30:11 10° WNW 00:34:34 38° N 00:38:55 10° ENE daylight
27 Oct - 02:11:54 10° WNW 02:16:13 36° NNW 02:20:31 10° NE daylight
27 Oct - 03:54:20 10° WNW 03:57:36 19° NNW 04:00:51 10° NNE daylight
27 Oct - 21:35:30 10° NNE 21:37:36 13° NE 21:39:42 10° ENE daylight
27 Oct - 23:14:39 10° NW 23:18:47 30° NNE 23:22:55 10° E daylight
28 Oct - 00:55:59 10° WNW 01:00:24 41° N 01:04:48 10° ENE daylight
28 Oct - 02:37:57 10° W 02:41:59 29° NNW 02:45:59 10° NE daylight
28 Oct - 04:21:46 10° WNW 04:23:05 11° NW 04:24:24 10° NNW daylight
28 Oct - 21:59:37 10° NNW 22:03:08 21° NNE 22:06:39 10° ENE daylight
28 Oct - 23:40:12 10° WNW 23:44:35 38° N 23:48:56 10° ENE daylight
29 Oct - 01:21:53 10° WNW 01:26:14 37° N 01:30:33 10° NE daylight
29 Oct - 03:04:16 10° WNW 03:07:38 20° NNW 03:10:59 10° NNE daylight
29 Oct - 20:45:48 10° NNE 20:47:39 12° NE 20:49:29 10° ENE daylight
29 Oct - 22:24:41 10° NW 22:28:48 30° NNE 22:32:55 10° E daylight
